﻿"全国地方公共団体コード","識別値","種別","年月","最高気温（℃）","最低気温（℃）","日平均気温（℃）","日最低気温の平均（℃）","日最高気温の平均（℃）","降水量の合計（mm）","日降水量の最大（mm）","日照時間（h）"
"232301","","統計","2010/1/1","15.4","-2","5.3","1.3","9.9","109.5","39","173.5"
"232301","","統計","2010/2/1","19.1","-0.6","7.3","3.1","12.3","74","22","161.5"
"232301","","統計","2010/3/1","23","1.7","9.5","4.9","15","115","36","196.4"
"232301","","統計","2010/4/1","27.9","4.1","15.4","10.3","21.3","125.5","61","252.7"
"232301","","統計","2010/5/1","31.6","10.9","19.9","15.5","25","188","72","195"
"232301","","統計","2010/6/1","32.4","14.9","23.3","19.3","28.4","240","38","172.8"
"232301","","統計","2010/7/1","35","20.4","26.4","23.5","30.4","254","102.5","95.3"
"232301","","統計","2010/8/1","35.2","20.6","27.3","24.1","31.9","128","40.5","189.6"
"232301","","統計","2010/9/1","34.6","16.5","24.1","20.3","29.1","51.5","27.5","182.5"
"232301","","統計","2010/10/1","28.6","10.9","18.5","14.4","23.2","211.5","90","192.3"
"232301","","統計","2010/11/1","25.5","4.2","12.9","9.1","17.6","200.5","101.5","158"
"232301","","統計","2010/12/1","18.4","-0.7","7.6","4","12.1","58","34","180.7"
"232301","","統計","2010 年ごと","35.2","-2","16.5","12.5","21.4","1755.5","102.5","2150.3"
"232301","","統計","2011/1/1","15.2","-2.2","4.6","1","9.1","11.5","4","165.6"
"232301","","統計","2011/2/1","19.9","-1.2","7","3.1","11.5","137","50","138.3"
"232301","","統計","2011/3/1","20.5","0.4","9.1","5.1","13.7","211","37","156.4"
"232301","","統計","2011/4/1","23.6","3.8","13.3","8.7","18.1","183.5","64","161.7"
"232301","","統計","2011/5/1","31.5","8.4","18.7","14","24","167","39.5","235.3"
"232301","","統計","2011/6/1","34.3","15.8","23.9","20.2","28.6","259","64.5","163.4"
"232301","","統計","2011/7/1","38","20.2","27.8","24.5","32.2","208.5","46","190.5"
"232301","","統計","2011/8/1","37.3","23.3","29.4","26.1","34.1","63.5","33","200.1"
"232301","","統計","2011/9/1","38","15.2","26.1","22.4","31","190.5","39.5","190.4"
"232301","","統計","2011/10/1","28.4","8.5","19.4","16","23.4","179.5","73","127"
"232301","","統計","2011/11/1","20.2","3.6","12.1","7.8","17.2","43","30","195.8"
"232301","","統計","2011/12/1","20","-1.2","7.9","4.2","12.4","76","24.5","170.8"
"232301","","統計","2011 年ごと","38","-2.2","16.6","12.8","21.3","1730","73","2095.3"
"232301","","統計","2012/1/1","10.7","-3.2","2.8","-0.7","7.4","9.5","8.5","189.8"
"232301","","統計","2012/2/1","17.5","-1.2","6.6","2.2","11.8","114","53.5","167"
"232301","","統計","2012/3/1","19.3","-1.1","7.5","2.8","13","43","17","229.5"
"232301","","統計","2012/4/1","24.1","2.5","13.3","8","19.5","111.5","31","213.5"
"232301","","統計","2012/5/1","31","10.8","19","14.8","23.8","330.5","94.5","169.8"
"232301","","統計","2012/6/1","35.8","14.9","23.8","20.3","28","171","28","135.3"
"232301","","統計","2012/7/1","35.6","20.5","27.5","24","32.2","262","83","168.4"
"232301","","統計","2012/8/1","36.7","21","28.3","25.1","32.7","116","38","168.7"
"232301","","統計","2012/9/1","33.2","13.5","25.1","21.6","29.5","388.5","169.5","186.7"
"232301","","統計","2012/10/1","26.3","9.7","18.8","14.7","23.7","133","30.5","191.7"
"232301","","統計","2012/11/1","25","2.8","13.9","10.1","18.2","82.5","59","155.3"
"232301","","統計","2012/12/1","15.4","-1.7","6.7","3.2","11.1","24","8.5","175.8"
"232301","","統計","2012 年ごと","36.7","-3.2","16.1","12.2","20.9","1785.5","169.5","2151.5"
"232301","","統計","2013/1/1","11.9","-1.7","4.2","0.9","8.5","35","15.5","162"
"232301","","統計","2013/2/1","14.8","-5.2","4.1","0.4","8.5","109.5","27.5","150.9"
"232301","","統計","2013/3/1","19.2","-1","8.3","4.2","13.2","147.5","30.5","175.1"
"232301","","統計","2013/4/1","28.5","1.1","14.2","9.6","19.7","144","60.5","177.6"
"232301","","統計","2013/5/1","28.2","8.5","19.2","14.5","24.6","55.5","29.5","219.5"
"232301","","統計","2013/6/1","31.2","17","22.3","19","26.6","200","53","120.9"
"232301","","統計","2013/7/1","36.9","20.1","26.9","23.6","31.2","224","60","183.3"
"232301","","統計","2013/8/1","35.4","22.6","28.4","24.9","33.4","142.5","42.5","236.3"
"232301","","統計","2013/9/1","35.2","17.5","25.8","22.1","30.8","233.5","92.5","183.2"
"232301","","統計","2013/10/1","30.5","9.5","19","14.8","24.1","102.5","37","221.2"
"232301","","統計","2013/11/1","21.7","1.9","11.3","7.4","16","78","32","159.9"
"232301","","統計","2013/12/1","14.1","-2.3","5.3","1.7","9.5","95.5","31","169.6"
"232301","","統計","2013 年ごと","36.9","-5.2","15.8","11.9","20.5","1567.5","92.5","2159.5"
"232301","","統計","2014/1/1","12.5","-3.3","4","0","9","51.5","31.5","209.7"
"232301","","統計","2014/2/1","16.4","-2.6","4.6","0.9","9.1","68.5","21","156"
"232301","","統計","2014/3/1","22.9","-0.8","10.5","5.2","16.5","54","23.5","207.1"
"232301","","統計","2014/4/1","25.8","3.6","13.8","8.6","19.6","130.5","45.5","214.1"
"232301","","統計","2014/5/1","31.5","6.8","19.4","14.4","25.5","63.5","30","282.2"
"232301","","統計","2014/6/1","35.7","17.7","23.6","20.3","28.4","148.5","42.5","129.1"
"232301","","統計","2014/7/1","37.4","20.2","28.1","24.3","33","186.5","59.5","203.3"
"232301","","統計","2014/8/1","38.4","20","29.3","25.2","34.5","136","51.5","262.3"
"232301","","統計","2014/9/1","33.3","15.3","24.9","21","29.9","280","101","204.3"
"232301","","統計","2014/10/1","32.3","9.7","20.2","16.7","24.5","236","83","146.7"
"232301","","統計","2014/11/1","22.3","0.7","11.5","7.2","16.1","51","15","167.1"
"232301","","統計","2014/12/1","15.5","-1.8","6.4","2.8","10.9","57.5","22.5","173.4"
"232301","","統計","2014 年ごと","38.4","-3.3","16.4","12.2","21.4","1463.5","101","2355.3"
"232301","","統計","2015/1/1","12.8","-2.1","4.6","0.5","9.6","38.5","20.5","214.1"
"232301","","統計","2015/2/1","18.6","-2.8","5.3","1.4","10.5","132.5","44","189.2"
"232301","","統計","2015/3/1","22.2","-1.6","9.3","4.8","14.4","153","51","215.1"
"232301","","統計","2015/4/1","26.4","3.4","14.6","9.5","20.4","128","59","220.3"
"232301","","統計","2015/5/1","33.3","7.7","19.5","14.4","25.6","154.5","59","273.7"
"232301","","統計","2015/6/1","34.9","17.7","24","20.3","29","72","26","181"
"232301","","統計","2015/7/1","38.2","19.2","27.4","23.6","32.3","106","30.5","194.9"
"232301","","統計","2015/8/1","36.9","20.3","27.1","24.2","31.5","179","42","102.3"
"232301","","統計","2015/9/1","33.1","15.3","23.4","19.5","28.4","195","86.5","186.5"
"232301","","統計","2015/10/1","30","7.2","18.9","15.4","23.4","167.5","60","161"
"232301","","統計","2015/11/1","24","4.3","13.2","9.4","17.7","96.5","28","159.3"
"232301","","統計","2015/12/1","14","-2.4","5.4","2.2","9.2","83","22","157.9"
"232301","","統計","2015 年ごと","38.2","-2.8","16.1","12.1","21","1505.5","86.5","2255.3"
"232301","","統計","2016/1/1","13.6","-2","4.9","1.5","9.1","116","30.5","170"
"232301","","統計","2016/2/1","15.5","-1.5","5.7","1.8","10.2","35","13","174.7"
"232301","","統計","2016/3/1","23.1","-1.1","9.7","5.2","15.3","139","35","197.7"
"232301","","統計","2016/4/1","28.3","5.8","15.2","11.5","20","148.5","29.5","145.1"
"232301","","統計","2016/5/1","33.1","12.1","21.3","16.3","27.1","98","43.5","251.3"
"232301","","統計","2016/6/1","31.8","13.5","22.3","18.8","26.8","196","38.5","127.7"
"232301","","統計","2016/7/1","36.7","18.6","26.5","23.5","30.5","227.5","53","144.7"
"232301","","統計","2016/8/1","38.4","21.4","28.1","24.8","32.9","296.5","74","181"
"232301","","統計","2016/9/1","30.8","16.3","23.1","19.8","27.5","262","53.5","159.5"
"232301","","統計","2016/10/1","27.3","7.9","18.4","13.7","23.8","64.5","24.5","240.6"
"232301","","統計","2016/11/1","24.1","4.5","14.3","10.8","18.6","137","22.5","136.4"
"232301","","統計","2016/12/1","22.6","0.6","9.3","5.7","13.9","83","45","171.6"
"232301","","統計","2016 年ごと","38.4","-2","16.6","12.8","21.3","1803","74","2100.3"
"232301","","統計","2017/1/1","15.7","-4.8","5.8","1.9","10.3","55","27.5","186.1"
"232301","","統計","2017/2/1","23.5","-2.1","6.5","2.2","11.7","64.5","27","184.2"
"232301","","統計","2017/3/1","22.7","-0.6","10.5","5.7","16.4","111","52","232.7"
"232301","","統計","2017/4/1","27.2","4.5","15.9","11.3","21.1","200","53.5","175.5"
"232301","","統計","2017/5/1","32.8","11.7","20.6","16.2","25.9","145","25","213.7"
"232301","","統計","2017/6/1","32.9","13.8","22.9","19.3","27.5","218.5","55","154.3"
"232301","","統計","2017/7/1","35.3","20.1","27","23.6","31.6","170","63.5","183"
"232301","","統計","2017/8/1","37.8","20.5","28.6","24.9","33.8","120","47.5","235.7"
"232301","","統計","2017/9/1","34.1","17.9","25.2","22.4","29.3","298.5","93.5","101.5"
"232301","","統計","2017/10/1","29.3","9.7","19.7","15.9","24.2","132.5","41.5","143.5"
"232301","","統計","2017/11/1","21.8","4.3","12.6","8.8","17","78","23.5","168"
"232301","","統計","2017/12/1","18","0.3","8.1","4.1","13","93","34","190"
"232301","","統計","2017 年ごと","37.8","-4.8","17","13","21.8","1686","93.5","2168.2"
"232301","","統計","2018/1/1","14","-3.6","4.8","1","9.6","24.5","13.5","187.4"
"232301","","統計","2018/2/1","15.3","-1.5","5.2","1.2","10.2","48","24.5","186.4"
"232301","","統計","2018/3/1","20.2","0.8","8.4","4","13.9","74","38.5","216.7"
"232301","","統計","2018/4/1","25.9","4.2","14.7","10.3","20.2","158","42.5","198"
"232301","","統計","2018/5/1","32.7","10.3","20.5","15.7","26","64.5","20","224.5"
"232301","","統計","2018/6/1","34","14.3","22.4","18","27.9","133","50","223.4"
"232301","","統計","2018/7/1","35.1","21.4","28.1","24.7","32.7","265","99","172.9"
"232301","","統計","2018/8/1","35.5","21.4","28.1","24.8","32.6","221.5","77.5","165.6"
"232301","","統計","2018/9/1","31.9","13","23.6","19.8","28.4","107.5","29.5","174.1"
"232301","","統計","2018/10/1","29.9","7.4","17.9","14.9","21.7","530","170","112.5"
"232301","","統計","2018/11/1","22.8","2.6","11.5","7.5","16.2","47.5","16.5","180"
"232301","","統計","2018/12/1","14.9","-0.7","5.7","2","10.2","28","21.5","179.5"
"232301","","統計","2018 年ごと","35.5","-3.6","15.9","12","20.8","1701.5","170","2221"
"232301","","統計","2019/1/1","14.6","-3.9","3.8","0.2","8.5","41","15.5","194.3"
"232301","","統計","2019/2/1","16.3","-3.2","4.7","0.4","9.9","17.5","13.5","185.1"
"232301","","統計","2019/3/1","25.3","1","11.2","6","17.4","202.5","37.5","232"
"232301","","統計","2019/4/1","29","3.6","16.5","11.5","22.4","213.5","56","221"
"232301","","統計","2019/5/1","30.7","8.7","19.8","15.4","24.8","253.5","71.5","211.2"
"232301","","統計","2019/6/1","33.9","14.8","23.4","19.6","28.1","193.5","57.5","190"
"232301","","統計","2019/7/1","39.6","22.1","29.3","25.8","34.4","152.5","65.5","241.7"
"232301","","統計","2019/8/1","40.3","20.8","29.7","25.9","35.3","128","74","239.7"
"232301","","統計","2019/9/1","33.2","15","23.6","20.6","27.7","365.5","53.5","103.8"
"232301","","統計","2019/10/1","29.6","10.2","18.9","14.9","23.9","23.5","6.5","179.8"
"232301","","統計","2019/11/1","23.1","3.7","13.8","9.9","18.7","44","25.5","183.5"
"232301","","統計","2019/12/1","20.1","-1.2","8.1","4.5","12.3","60.5","10.5","148.5"
"232301","","統計","2019 年ごと","40.3","-3.9","16.9","12.9","22","1695.5","74","2330.6"
"232301","","統計","2020/1/1","17.7","0.7","7.6","4.1","11.8","55.5","22","146.6"
"232301","","統計","2020/2/1","19.7","-2.2","7.1","3.1","11.8","53.5","21","184.2"
"232301","","統計","2020/3/1","22.4","0.8","10.7","6.4","15.9","149.5","42.5","201.1"
"232301","","統計","2020/4/1","26","4.7","13.4","8.6","19","111","28.5","254.9"
"232301","","統計","2020/5/1","30.8","11.8","20.6","16.1","25.7","135","57","213.6"
"232301","","統計","2020/6/1","33.2","18","24.6","21.1","29.3","230","48","164.2"
"232301","","統計","2020/7/1","34.8","19.3","25.4","22.9","29.1","405.5","53","78.2"
"232301","","統計","2020/8/1","38.2","23.9","30.3","26.5","35.9","13","5","265.5"
"232301","","統計","2020/9/1","35.7","17.1","25.4","22.2","30","230.5","69","148.5"
"232301","","統計","2020/10/1","28.8","8","18","14.5","22.5","269","86","178.2"
"232301","","統計","2020/11/1","24.9","6","14","9.8","18.9","36.5","14.5","202.5"
"232301","","統計","2020/12/1","17.2","-0.2","7.4","3.6","12","22","5.5","178.3"
"232301","","統計","2020 年ごと","38.2","-2.2","17","13.2","21.8","1711","86","2215.8"
"232301","","統計","2021/1/1","15.4","-3.7","5","1.5","9.5","56.5","19","161.7"
"232301","","統計","2021/2/1","21","-1.8","7.5","3.2","12.7","46.5","34","164.8"
"232301","","統計","2021/3/1","24.5","2.8","12","7.3","17.5","203.5","51.5","192.8"
"232301","","統計","2021/4/1","27.9","5.2","15.2","10.5","20.6","192","89","219.5"
"232301","","統計","2021/5/1","30.7","9.5","19.5","15.3","24.2","254","81","151.9"
"232301","","統計","2021/6/1","32.4","15.6","23.4","19.9","28.1","137","79","153.7"
"232301","","統計","2021/7/1","36.4","21.4","27.4","24.2","32","312.5","51","175.2"
"232301","","統計","2021/8/1","37.8","22.4","27.8","24.8","31.9","347","101.5","167.1"
"232301","","統計","2021/9/1","31.7","18.7","24.1","21.1","28.3","224","47","126.1"
"232301","","統計","2021/10/1","31.2","10","19.9","16.1","24.7","65","25","197.1"
"232301","","統計","2021/11/1","25.1","2.1","13","8.6","18.4","71.5","35.5","200.2"
"232301","","統計","2021/12/1","18","-1.2","7.3","3.4","11.9","89","22","168"
"232301","","統計","2021 年ごと","37.8","-3.7","16.8","13","21.7","1998.5","101.5","2078.1"
"232301","","統計","2022/1/1","14.2","2.7","4.1","0.5","8.8","26","12.5","196.8"
"232301","","統計","2022/2/1","15.2","1.9","4.5","0.7","9.5","34","13.5","170.9"
"232301","","統計","2022/3/1","22.8","0.8","11","6.2","16.4","84.5","35.5","205.3"
"232301","","統計","2022/4/1","29.3","5","16.8","12.2","22.2","134.5","32","200.2"
"232301","","統計","2022/5/1","33.1","8.1","19.5","14.9","24.7","164","62.5","210.5"
"232301","","統計","2022/6/1","37.9","14.6","24.3","20.4","29","117.5","37","203.8"
"232301","","統計","2022/7/1","38.4","21.6","27.5","24.1","32","366.5","67","192.8"
"232301","","統計","2022/8/1","37.5","22.7","28.5","25.1","33.1","196","38","155.5"
"232301","","統計","2022/9/1","34","18.4","26.1","22.8","30.5","260","95.5","163.8"
"232301","","統計","2022/10/1","30.6","8.5","18.7","14.8","23.8","56","25","189.8"
"232301","","統計","2022/11/1","24.1","7.2","14.6","10.4","19.7","114","36","191.7"
"232301","","統計","2022/12/1","16.4","2","6.6","3","11","25","9.5","175.2"
"232301","","統計","2022 年ごと","38.4","0.8","16.9","12.9","21.7","1578","95.5","2256.3"
"232301","","統計","2023/1/1","14.8","-3.8","5.2","1.1","10.1","25","14","186.9"
"232301","","統計","2023/2/1","17.9","-1.9","6.5","2.5","11.6","44","29","191.4"
"232301","","統計","2023/3/1","24.9","2.5","12.7","7.5","18.7","95","26.5","213.6"
"232301","","統計","2023/4/1","28.5","5.2","15.9","11","21.5","144","35.5","202"
"232301","","統計","2023/5/1","33.3","10.5","20.2","15.8","25.6","173","53","225.8"
"232301","","統計","2023/6/1","33.6","14.6","23.8","20.1","28.1","377.5","151","128.8"
"232301","","統計","2023/7/1","38.3","20.8","28.9","24.8","34.1","144","54","241.5"
"232301","","統計","2023/8/1","38.9","23.2","29.4","25.8","34.8","156.5","62","216.2"
"232301","","統計","2023/9/1","35.7","20.4","27.3","24","32.3","98.5","49.5","181.3"
"232301","","統計","2023/10/1","27.1","9.6","18.3","14.1","23.9","116.5","30","217.4"
"232301","","統計","2023/11/1","26.3","4.7","13.6","9.3","18.9","70.5","26.5","182.2"
"232301","","統計","2023/12/1","20.5","-1.4","8.4","4.3","13.4","60","23.5","191.3"
"232301","","統計","2023 年ごと","38.9","-3.8","17.5","13.4","22.8","1504.5","151","2378.4"
